[[{"header":{"parameterUnit":"m.s-1","parameterCategory":1,"la1":30.2991,"la2":30.254,"lo1":-89.0895,"lo2":-89.0444,"dy":0.0017,"dx":0.0017,"nx":28,"ny":28,"refTime":"2025-07-15T21:00:00:Z","depth":0,"parameterNumber":2,"parameterNumberName":"U-component_of_WINDS"},"data":[0,0,0,0,0,0,0,0,0,0,0,0,0,0,0,0,0,0,0,0,0,0,0,0,0,0,0,0,0,0,0,0,0,0,0,0,0,0,0,0,0,0,0,0,0,0,0,0,0,0,0,0,0,0,0,0,0,0,1.473,1.473,0,1.4676,1.4676,1.4675,1.4611,1.461,1.4609,1.4609,1.4551,1.455,1.455,0,0,0,0,0,0,0,0,0,0,0,0,0,1.4777,1.4776,1.473,1.473,1.4729,1.4676,1.4676,1.4675,1.4612,1.461,1.4609,1.4608,1.4551,1.4551,1.455,0,0,0,0,0,0,0,0,0,0,0,0,0,1.4743,1.4776,1.473,1.4691,1.4687,1.4677,1.4676,1.4675,1.4612,1.461,1.4609,1.4608,1.4552,1.4551,1.455,1.4573,0,0,1.4547,1.4546,0,0,0,0,0,0,0,0,1.4745,1.4741,1.4697,1.4694,1.4689,1.4649,1.4671,1.4641,1.4612,1.464,1.4609,1.4607,1.4585,1.4581,1.4574,1.457,1.4568,1.4547,1.4546,1.4546,1.4546,0,0,0,0,0,0,0,1.4747,1.4743,1.4709,1.4697,1.4692,1.4676,1.4669,1.4665,1.4621,1.4638,1.4633,1.4628,1.4582,1.4575,1.4572,1.4567,1.4547,1.4546,1.4545,1.4545,1.4581,1.4582,0,0,0,0,0,0,1.4756,1.4746,1.471,1.4707,1.4714,1.4676,1.4669,1.4663,1.4621,1.4613,1.4629,1.4625,1.4577,1.4573,1.457,1.4595,1.4546,1.4545,1.4544,1.4579,1.4581,1.4583,0,0,0,0,0,0,1.4757,1.4753,1.4713,1.4725,1.4719,1.4677,1.4671,1.4663,1.4656,1.4615,1.4606,1.463,1.4576,1.4571,1.4573,1.4592,1.4544,1.4544,1.4577,1.458,1.4582,1.4645,0,0,0,0,0,0,1.4759,1.4754,1.4763,1.4726,1.4718,1.4717,1.4672,1.4663,1.4655,1.4649,1.4613,1.4606,1.4575,1.4575,1.4572,1.459,1.4543,1.4576,1.4578,1.4581,1.4641,1.465,1.4657,0,0,0,0,0,1.4761,1.4782,1.4764,1.476,1.4728,1.4719,1.4714,1.4679,1.4657,1.4665,1.4638,1.4607,1.4591,1.4576,1.4572,1.459,1.4574,1.4578,1.4581,1.4638,1.4648,1.4656,0,0,0,0,0,0,1.4821,1.4777,1.4756,1.4766,1.4747,1.4708,1.4717,1.469,1.4676,1.4671,1.4627,1.4619,1.4627,1.4608,1.4592,1.4611,1.4578,1.4581,1.4622,1.4632,1.4639,1.4643,1.4542,0,0,0,0,0,1.4836,1.4833,1.4793,1.4806,1.4798,1.4759,1.4754,1.4728,1.4706,1.4697,1.4671,1.465,1.4641,1.4635,1.4624,1.4639,1.463,1.4649,1.4657,1.4663,1.4666,1.4673,1.4682,1.4594,1.4594,1.4594,0,0,1.4866,1.4841,1.4841,1.4818,1.48,1.4797,1.4753,1.4751,1.4748,1.4697,1.4697,1.4678,1.4652,1.4661,1.4663,1.4645,1.4689,1.4667,1.4673,1.4672,1.4678,1.4686,1.4694,1.4596,1.4596,1.4595,0,0,1.4919,1.49,1.4909,1.4893,1.4867,1.4841,1.4844,1.4809,1.4795,1.4795,1.4756,1.4752,1.4736,1.472,1.4709,1.4758,1.4729,1.4756,1.4795,1.4803,1.481,1.4815,1.4833,1.484,1.4759,1.4759,1.4759,0,1.496,1.4954,1.4917,1.4918,1.4909,1.4864,1.4873,1.4858,1.483,1.4824,1.4805,1.4785,1.4764,1.4769,1.4781,1.4774,1.4775,1.4759,1.4812,1.4817,1.4822,1.4839,1.4846,1.4762,1.4762,1.4761,1.4761,0,1.5006,1.5002,1.5013,1.4988,1.498,1.4985,1.4948,1.4945,1.492,1.4897,1.4898,1.4872,1.4855,1.4854,1.4829,1.4856,1.4846,1.482,1.4786,1.4835,1.485,1.4856,1.4767,1.4766,1.4765,1.4764,0,0,1.5094,1.505,1.5055,1.5043,1.5012,1.5008,1.5012,1.4996,1.4994,1.4976,1.4978,1.4966,1.4943,1.4931,1.4904,1.4911,1.4953,1.4884,1.4883,1.4898,1.4981,1.5,1.5008,1.4933,1.4934,1.4935,1.4983,0,1.5142,1.5146,1.5113,1.5126,1.5123,1.508,1.5083,1.5064,1.5043,1.5037,1.5012,1.5005,1.4974,1.4967,1.4972,1.4947,1.4968,1.4943,1.4934,1.4934,1.4942,1.5016,1.5037,1.5083,1.4988,1.4989,1.499,0,1.5198,1.5185,1.5198,1.5167,1.5164,1.5168,1.5151,1.5146,1.5124,1.5108,1.5096,1.5066,1.5067,1.5035,1.5036,1.5019,1.5014,1.5001,1.5002,1.5,1.4965,1.5016,1.5097,1.5104,1.4999,1.4998,1.4997,0,1.5263,1.5248,1.5254,1.5245,1.5209,1.5213,1.5198,1.5174,1.5168,1.5153,1.5149,1.5134,1.5127,1.5116,1.5083,1.5063,1.5088,1.5053,1.5075,1.5076,1.5082,1.5082,1.5163,1.5078,1.5078,1.5078,1.5078,0,1.5319,1.5329,1.5282,1.5286,1.5295,1.5258,1.5268,1.5249,1.5229,1.5228,1.519,1.519,1.5146,1.5141,1.5115,1.512,1.5117,1.5104,1.5097,1.5107,1.5109,1.5103,1.5099,1.508,1.508,1.5079,1.5079,0,1.5392,1.5362,1.5365,1.5332,1.5324,1.5332,1.5303,1.5305,1.5282,1.5282,1.5279,1.5243,1.5235,1.5201,1.5185,1.5168,1.5182,1.5168,1.5189,1.5185,1.5209,1.5207,1.5289,1.5298,1.5208,1.5208,1.5209,0,1.5431,1.5437,1.5405,1.5402,1.539,1.5385,1.5379,1.5342,1.5337,1.5313,1.5318,1.5307,1.5297,1.5287,1.5258,1.5246,1.5232,1.5261,1.5229,1.524,1.5233,1.5233,1.5234,1.5268,1.5269,1.527,1.5271,0,1.5502,1.5487,1.5479,1.5467,1.546,1.5449,1.5434,1.5434,1.5393,1.5389,1.5382,1.5374,1.5358,1.5348,1.5332,1.5316,1.5287,1.5282,1.5286,1.5297,1.5309,1.5303,1.5208,1.528,1.5279,1.5278,1.5278,1.5277,1.5559,1.5563,1.5542,1.5535,1.5521,1.5509,1.5509,1.5487,1.548,1.5465,1.5444,1.544,1.5418,1.5393,1.538,1.5375,1.5359,1.5365,1.5367,1.5369,1.5374,1.531,1.5372,1.5372,1.5371,1.5371,1.5371,0,1.5629,1.5614,1.5608,1.559,1.5584,1.5559,1.5542,1.5539,1.5536,1.5519,1.551,1.5502,1.5492,1.5464,1.5452,1.5454,1.5441,1.5452,1.5452,1.5449,1.5389,1.5387,1.5463,1.5463,1.5463,1.5463,1.5463,1.5463,1.5665,1.5671,1.5654,1.5653,1.5637,1.5633,1.5625,1.5614,1.5601,1.5593,1.5586,1.5568,1.5546,1.5533,1.5523,1.5515,1.5512,1.5528,1.5516,1.5461,1.5452,1.5444,1.5442,1.5528,1.5528,1.5576,1.5576,1.5576]},{"header":{"parameterUnit":"m.s-1","parameterCategory":1,"la1":30.2991,"la2":30.254,"lo1":-89.0895,"lo2":-89.0444,"dy":0.0017,"dx":0.0017,"nx":28,"ny":28,"refTime":"2025-07-15T21:00:00:Z","depth":0,"parameterNumber":3,"parameterNumberName":"V-component_of_WINDS"},"data":[0,0,0,0,0,0,0,0,0,0,0,0,0,0,0,0,0,0,0,0,0,0,0,0,0,0,0,0,0,0,0,0,0,0,0,0,0,0,0,0,0,0,0,0,0,0,0,0,0,0,0,0,0,0,0,0,0,0,-3.3177,-3.3178,0,-3.3334,-3.3336,-3.3338,-3.3342,-3.334,-3.3338,-3.3336,-3.3495,-3.35,-3.3506,0,0,0,0,0,0,0,0,0,0,0,0,0,-3.2878,-3.2883,-3.3176,-3.3178,-3.318,-3.3334,-3.3336,-3.3338,-3.3342,-3.334,-3.3337,-3.3335,-3.3493,-3.35,-3.3507,0,0,0,0,0,0,0,0,0,0,0,0,0,-3.3019,-3.2885,-3.3176,-3.3201,-3.3205,-3.3333,-3.3336,-3.3339,-3.3343,-3.334,-3.3337,-3.3334,-3.349,-3.3499,-3.3508,-3.3622,0,0,-3.3536,-3.3539,0,0,0,0,0,0,0,0,-3.3011,-3.303,-3.3195,-3.3199,-3.3204,-3.3315,-3.3289,-3.3434,-3.3343,-3.329,-3.3336,-3.3333,-3.3437,-3.345,-3.3486,-3.3629,-3.3636,-3.3536,-3.3542,-3.3546,-3.3548,0,0,0,0,0,0,0,-3.3001,-3.3023,-3.3239,-3.3198,-3.3203,-3.3204,-3.3221,-3.3316,-3.3378,-3.3295,-3.3295,-3.3314,-3.3439,-3.3477,-3.349,-3.3638,-3.3536,-3.3544,-3.355,-3.3553,-3.3885,-3.3888,0,0,0,0,0,0,-3.2987,-3.3015,-3.3234,-3.3243,-3.3098,-3.3212,-3.323,-3.3282,-3.3377,-3.3388,-3.3316,-3.3314,-3.3463,-3.3479,-3.3495,-3.3637,-3.3546,-3.3554,-3.3559,-3.3881,-3.3886,-3.3889,0,0,0,0,0,0,-3.298,-3.3006,-3.3227,-3.313,-3.3158,-3.322,-3.3278,-3.3287,-3.3326,-3.3393,-3.3404,-3.3345,-3.3462,-3.3483,-3.3591,-3.3642,-3.3558,-3.3566,-3.3877,-3.3883,-3.3887,-3.3918,0,0,0,0,0,0,-3.2972,-3.3004,-3.3048,-3.313,-3.3163,-3.3321,-3.3281,-3.3292,-3.3342,-3.334,-3.3423,-3.3434,-3.3461,-3.3578,-3.36,-3.3653,-3.3573,-3.3873,-3.388,-3.3886,-3.3913,-3.3924,-3.3933,0,0,0,0,0,-3.2961,-3.3049,-3.305,-3.3076,-3.3219,-3.3324,-3.3342,-3.3373,-3.3346,-3.339,-3.3434,-3.3431,-3.3633,-3.3589,-3.3614,-3.367,-3.387,-3.3878,-3.3885,-3.3909,-3.3922,-3.3933,0,0,0,0,0,0,-3.2969,-3.306,-3.3062,-3.318,-3.3244,-3.3324,-3.3381,-3.3385,-3.3458,-3.3453,-3.3487,-3.3506,-3.3614,-3.3653,-3.3602,-3.3787,-3.3748,-3.3761,-3.3757,-3.377,-3.378,-3.3769,-3.3581,0,0,0,0,0,-3.2984,-3.3062,-3.3137,-3.3234,-3.3266,-3.3318,-3.3365,-3.3383,-3.3451,-3.3478,-3.3529,-3.3595,-3.3673,-3.3724,-3.3799,-3.3919,-3.3938,-3.397,-3.398,-3.3988,-3.3999,-3.4067,-3.4083,-3.3914,-3.3914,-3.3914,0,0,-3.3017,-3.3077,-3.3123,-3.3237,-3.3289,-3.3369,-3.3341,-3.3426,-3.3486,-3.349,-3.3597,-3.3637,-3.3712,-3.3827,-3.388,-3.3863,-3.405,-3.3998,-3.4004,-3.4011,-3.4077,-3.4093,-3.4107,-3.392,-3.3919,-3.3918,0,0,-3.3117,-3.317,-3.3257,-3.3311,-3.3391,-3.3425,-3.3446,-3.3526,-3.3554,-3.3661,-3.3667,-3.3738,-3.3872,-3.3926,-3.3971,-3.4095,-3.4095,-3.4118,-3.4171,-3.4237,-3.425,-3.4262,-3.4308,-3.4323,-3.4129,-3.4129,-3.4129,0,-3.3148,-3.3269,-3.3301,-3.3387,-3.3438,-3.3448,-3.3537,-3.3586,-3.3686,-3.3721,-3.37,-3.387,-3.3921,-3.405,-3.4081,-3.4116,-3.4142,-3.4109,-3.4246,-3.4258,-3.427,-3.4313,-3.433,-3.4132,-3.4131,-3.4131,-3.4131,0,-3.3303,-3.3386,-3.3447,-3.3546,-3.3603,-3.369,-3.3736,-3.379,-3.3804,-3.3841,-3.3951,-3.4013,-3.4102,-3.4134,-3.4147,-3.4266,-3.4253,-3.4238,-3.4201,-3.4288,-3.4329,-3.4346,-3.4135,-3.4134,-3.4133,-3.4133,0,0,-3.3411,-3.3528,-3.355,-3.3596,-3.3686,-3.3751,-3.3839,-3.3928,-3.3975,-3.4044,-3.4119,-3.4233,-3.4222,-3.4273,-3.4293,-3.435,-3.4447,-3.433,-3.4332,-3.435,-3.4582,-3.4593,-3.4612,-3.4448,-3.4451,-3.4453,-3.4576,0,-3.3522,-3.3679,-3.3712,-3.3848,-3.3927,-3.3939,-3.4016,-3.408,-3.4117,-3.4189,-3.4229,-3.4311,-3.4289,-3.432,-3.4378,-3.4423,-3.4494,-3.4414,-3.4518,-3.4521,-3.4499,-3.4633,-3.4644,-3.4757,-3.4593,-3.4596,-3.4598,0,-3.3672,-3.3747,-3.3891,-3.3973,-3.4008,-3.4076,-3.4162,-3.423,-3.4303,-3.4326,-3.4385,-3.44,-3.4492,-3.445,-3.4578,-3.4523,-3.4568,-3.4597,-3.4602,-3.4613,-3.4565,-3.4649,-3.4794,-3.4811,-3.4623,-3.4621,-3.4619,0,-3.3738,-3.3875,-3.398,-3.4018,-3.4116,-3.4164,-3.4207,-3.4277,-3.433,-3.4404,-3.4439,-3.4522,-3.4568,-3.4633,-3.467,-3.4636,-3.4796,-3.4756,-3.4818,-3.4817,-3.4851,-3.4849,-3.5006,-3.4879,-3.4879,-3.4878,-3.4878,0,-3.3858,-3.3947,-3.4011,-3.4075,-3.4175,-3.4212,-3.431,-3.4352,-3.4415,-3.4489,-3.4503,-3.4571,-3.4616,-3.4691,-3.472,-3.4823,-3.4843,-3.4865,-3.4872,-3.4864,-3.4861,-3.4894,-3.4887,-3.4883,-3.4882,-3.4881,-3.488,0,-3.3948,-3.3995,-3.411,-3.4195,-3.4218,-3.4288,-3.436,-3.4423,-3.4461,-3.4554,-3.4578,-3.4638,-3.4727,-3.477,-3.488,-3.49,-3.5017,-3.5018,-3.4993,-3.4995,-3.5055,-3.5049,-3.5239,-3.5267,-3.512,-3.5122,-3.5123,0,-3.4023,-3.4091,-3.4184,-3.4235,-3.4279,-3.436,-3.4414,-3.4454,-3.451,-3.46,-3.4653,-3.4743,-3.4817,-3.4959,-3.5012,-3.5097,-3.5101,-3.5162,-3.5113,-3.5104,-3.5103,-3.5099,-3.5107,-3.517,-3.5171,-3.5173,-3.5173,0,-3.415,-3.417,-3.4248,-3.4335,-3.44,-3.447,-3.4538,-3.4579,-3.463,-3.4692,-3.4784,-3.4842,-3.4956,-3.5045,-3.5135,-3.5178,-3.5185,-3.5189,-3.5208,-3.52,-3.5183,-3.5195,-3.5017,-3.5184,-3.5183,-3.5182,-3.5181,-3.5181,-3.4235,-3.4297,-3.4373,-3.446,-3.4516,-3.4581,-3.4646,-3.4693,-3.4771,-3.4868,-3.4886,-3.4985,-3.5058,-3.5178,-3.5226,-3.5303,-3.5289,-3.5316,-3.5323,-3.533,-3.5334,-3.5171,-3.5319,-3.5319,-3.5319,-3.5318,-3.5318,0,-3.4364,-3.4414,-3.4493,-3.459,-3.4659,-3.4661,-3.4738,-3.4795,-3.4882,-3.495,-3.5024,-3.5131,-3.5219,-3.528,-3.5369,-3.5419,-3.5425,-3.5441,-3.5438,-3.5449,-3.534,-3.5315,-3.5436,-3.5436,-3.5436,-3.5436,-3.5436,-3.5435,-3.4439,-3.4545,-3.4575,-3.471,-3.4759,-3.4856,-3.4901,-3.4961,-3.5016,-3.5135,-3.5209,-3.5248,-3.5315,-3.5409,-3.549,-3.5506,-3.5538,-3.5555,-3.5571,-3.5468,-3.5456,-3.5444,-3.5421,-3.5562,-3.5562,-3.5674,-3.5675,-3.5675]}]]